Terminal Aerodrome Forecast
Issued by NWS Upton, NY

Home | Current Version | Previous Version | Text Only | Print | Product List | Glossary On
Versions: 1 2 3 4 5 6 7 8 9 10 11 12 13 14 15 16 17 18 19 20 21 22 23 24 25 26 27 28 29 30 31 32 33 34 35 36 37 38 39
000
FTUS41 KOKX 242300 RRA
TAFLGA
TAF
KLGA 242343Z 2500/2524 VRB03KT P6SM FEW050 SCT120 SCT250
     FM250300 32007KT P6SM SKC
     FM251500 28009KT P6SM SKC
     FM251800 25011KT P6SM SCT050=

USA.gov is the U.S. government's official web portal to all federal, state and local government web resources and services.